TimeMDT,TemperatureF,Dew PointF,Humidity,Sea Level PressureIn,VisibilityMPH,Wind Direction,Wind SpeedMPH,Gust SpeedMPH,PrecipitationIn,Events,Conditions,WindDirDegrees,DateUTC
12:53 AM,37.9,35.1,89,30.09,10.0,Calm,Calm,-,N/A,,Overcast,0,2013-10-21 06:53:00
1:53 AM,39.9,36.0,86,30.09,10.0,NNW,3.5,-,N/A,,Overcast,330,2013-10-21 07:53:00
2:53 AM,39.0,36.0,89,30.09,10.0,Calm,Calm,-,N/A,,Overcast,0,2013-10-21 08:53:00
3:53 AM,39.0,36.0,89,30.09,10.0,Calm,Calm,-,N/A,,Overcast,0,2013-10-21 09:53:00
4:53 AM,39.9,36.0,86,30.08,10.0,Calm,Calm,-,N/A,,Overcast,0,2013-10-21 10:53:00
5:53 AM,41.0,35.1,79,30.09,10.0,NNW,3.5,-,N/A,,Overcast,340,2013-10-21 11:53:00
6:53 AM,39.9,35.1,83,30.08,10.0,SW,5.8,-,N/A,,Overcast,220,2013-10-21 12:53:00
7:53 AM,45.0,36.0,71,30.09,10.0,WNW,10.4,-,N/A,,Overcast,300,2013-10-21 13:53:00
8:53 AM,46.0,36.0,68,30.09,10.0,WNW,9.2,-,N/A,,Mostly Cloudy,290,2013-10-21 14:53:00
9:53 AM,51.1,37.0,59,30.08,10.0,NW,8.1,-,N/A,,Scattered Clouds,310,2013-10-21 15:53:00
10:53 AM,53.1,36.0,52,30.09,10.0,NNW,13.8,23.0,N/A,,Mostly Cloudy,340,2013-10-21 16:53:00
11:53 AM,55.9,37.0,49,30.05,10.0,NW,10.4,-,N/A,,Overcast,320,2013-10-21 17:53:00
12:53 PM,55.9,35.1,45,30.04,10.0,NW,15.0,-,N/A,,Overcast,320,2013-10-21 18:53:00
1:53 PM,55.9,35.1,45,30.03,10.0,NNW,16.1,-,N/A,,Overcast,330,2013-10-21 19:53:00
2:53 PM,55.0,36.0,49,30.04,10.0,NW,17.3,23.0,N/A,,Overcast,310,2013-10-21 20:53:00
3:53 PM,55.0,34.0,45,30.04,10.0,WNW,16.1,25.3,N/A,,Overcast,300,2013-10-21 21:53:00
4:53 PM,55.9,33.1,42,30.05,10.0,NW,17.3,27.6,N/A,,Overcast,310,2013-10-21 22:53:00
5:53 PM,55.0,34.0,45,30.05,10.0,NW,17.3,-,N/A,,Overcast,310,2013-10-21 23:53:00
6:53 PM,54.0,34.0,47,30.07,10.0,WNW,17.3,-,N/A,,Overcast,300,2013-10-22 00:53:00
7:53 PM,54.0,34.0,47,30.06,10.0,WNW,17.3,-,N/A,,Overcast,300,2013-10-22 01:53:00
8:53 PM,53.1,35.1,50,30.07,10.0,WNW,15.0,-,N/A,,Overcast,300,2013-10-22 02:53:00
9:53 PM,50.0,35.1,57,30.09,10.0,WNW,9.2,-,N/A,,Mostly Cloudy,290,2013-10-22 03:53:00
10:53 PM,46.9,35.1,63,30.09,10.0,WNW,9.2,-,N/A,,Mostly Cloudy,290,2013-10-22 04:53:00
11:53 PM,48.9,36.0,61,30.09,10.0,West,8.1,-,N/A,,Overcast,280,2013-10-22 05:53:00